Regional Weather Roundup
Issued by NWS

Home | Current Version | Previous Version | Graphics & Text | Print | Product List | Glossary On
Versions: 1 2 3 4 5 6 7 8 9 10 11 12 13 14 15 16 17 18 19 20 21 22 23 24 25 26 27 28 29 30 31 32 33 34 35 36 37 38 39 40 41 42 43 44 45 46 47 48 49 50
000
ASUS43 KDTX 241810
RWRMI
MICHIGAN HOURLY REGIONAL WEATHER ROUNDUP
NATIONAL WEATHER SERVICE DETROIT/PONTIAC MI
200 PM EDT SUN MAY 24 2015

NOTE: "FAIR" INDICATES FEW OR NO CLOUDS BELOW 12,000 FEET WITH NO
SIGNIFICANT WEATHER AND/OR OBSTRUCTION TO VISIBILITY.

MIZ047>049-052>055-059>063-066>070-074>076-081>083-241900-
SOUTHEAST LOWER MICHIGAN

CITY           SKY/WX    TMP DP  RH WIND       PRES   REMARKS
ADRIAN         CLOUDY    76  51  41 SW10      30.22F
6HR MIN TEMP:  57; 6HR MAX TEMP:  78;

ALMA           LGT RAIN  71  53  53 SW5       30.21F
ANN ARBOR      CLOUDY    77  51  40 SW9       30.22F
BAD AXE        CLOUDY    78  45  31 W7        30.20F
CARO           PTSUNNY   78  50  37 SW15      30.20S
DETROIT CITY   CLOUDY    76  47  35 SW9       30.22F
6HR MIN TEMP:  63; 6HR MAX TEMP:  78;

DETROIT        CLOUDY    79  51  37 S6        30.22F
6HR MIN TEMP:  59; 6HR MAX TEMP:  79;

FLINT          LGT RAIN  75  51  43 S8        30.22F
6HR MIN TEMP:  66; 6HR MAX TEMP:  79; 6HR PCP: TRACE;

GROSSE ILE     PTSUNNY   75  52  43 CALM      30.21F
HILLSDALE      CLOUDY    75  51  42 S6        30.22F
6HR MIN TEMP:  65; 6HR MAX TEMP:  78;

HOWELL         CLOUDY    75  47  37 S7        30.22F

CITY           SKY/WX    TMP DP  RH WIND       PRES   REMARKS
JACKSON        CLOUDY    74  53  48 SW12      30.21F
6HR MIN TEMP:  59; 6HR MAX TEMP:  75;

LAMBERTVILLE   CLOUDY    79  48  34 SW7       30.22F
LANSING        CLOUDY    74  52  46 SW8       30.21F
6HR MIN TEMP:  62; 6HR MAX TEMP:  74; 6HR PCP: TRACE;

LAPEER         FAIR      77  44  31 SW12      30.22F
MASON          CLOUDY    71  52  51 S6        30.21F
MT. CLEMENS    PTSUNNY   76  55  47 SE9       30.21F
6HR MIN TEMP:  61; 6HR MAX TEMP:  80;

PONTIAC        CLOUDY    75  48  38 SW7       30.22F
6HR MIN TEMP:  62; 6HR MAX TEMP:  76;

PORT HOPE        N/A     77  48  35 W8        30.18F
6HR MIN TEMP:  60; 6HR MAX TEMP:  77;

PORT HURON     PTSUNNY   79  52  38 S12       30.22F
TRI CITIES     CLOUDY    79  49  34 SW16G22   30.20F
6HR MIN TEMP:  61; 6HR MAX TEMP:  80;

MIDLAND        FAIR      78  46  32 SW16      30.18F
TROY           CLOUDY    78  44  30 S8        30.24F
SAGINAW HB     CLOUDY    79  45  29 SW15      30.19S
$$
MIZ043>046-050>051-056>058-064>065-071>073-077>080-241900-
SOUTHWEST LOWER MICHIGAN

CITY           SKY/WX    TMP DP  RH WIND       PRES   REMARKS
BATTLE CREEK   CLOUDY    75  52  44 S9        30.20F
6HR MIN TEMP:  60; 6HR MAX TEMP:  75; 6HR PCP: TRACE;

BENTON HARBOR  CLOUDY    71  55  56 E6        30.15F
6HR MIN TEMP:  58; 6HR MAX TEMP:  72; 6HR PCP: TRACE;

BIG RAPIDS     CLOUDY    70  37  29 S10G23    30.21R
6HR MIN TEMP:  54; 6HR MAX TEMP:  73;

COLDWATER      CLOUDY    71  53  52 S5        30.20F
6HR MIN TEMP:  58; 6HR MAX TEMP:  74;

FREMONT        LGT RAIN  68  54  61 CALM      30.20S
HOLLAND        CLOUDY    72  52  49 E3        30.19F
6HR MIN TEMP:  58; 6HR MAX TEMP:  72; 6HR PCP: TRACE;

GRAND RAPIDS   LGT RAIN  72  53  51 S7        30.21R
6HR MIN TEMP:  58; 6HR MAX TEMP:  73; 6HR PCP: TRACE;

IONIA          CLOUDY    75  47  37 S7        30.19F
KALAMAZOO      CLOUDY    76  54  46 S7        30.19F
6HR MIN TEMP:  60; 6HR MAX TEMP:  76; 6HR PCP: TRACE;

LUDINGTON      CLOUDY    68  51  53 SW13G18   30.20S
6HR MIN TEMP:  62; 6HR MAX TEMP:  72;

MARSHALL       CLOUDY    74  53  46 S5        30.20F
MOUNT PLEASANT CLOUDY    75  48  38 SW10G18   30.19F
6HR MIN TEMP:  61; 6HR MAX TEMP:  77;

MUSKEGON       CLOUDY    69  47  45 SW10      30.20S
6HR MIN TEMP:  58; 6HR MAX TEMP:  71; 6HR PCP: TRACE;

SOUTH HAVEN    CLOUDY    71  55  55 E6        30.17F
$$
MIZ016>042-241900-
NORTHERN LOWER MICHIGAN

CITY           SKY/WX    TMP DP  RH WIND       PRES   REMARKS
ALPENA         CLOUDY    76  47  35 E7        30.15F
6HR MIN TEMP:  60; 6HR MAX TEMP:  79;

BEAVER ISLAND  CLOUDY    70  39  32 SW7       30.14F
6HR MIN TEMP:  59; 6HR MAX TEMP:  71;

BELLAIRE       CLOUDY    80  46  30 W6        30.13F
6HR MIN TEMP:  54; 6HR MAX TEMP:  80;

CADILLAC       CLOUDY    74  49  41 SW12      30.18S
CHARLEVOIX     CLOUDY    71  46  40 W7        30.17F
FRANKFORT      CLOUDY    63  42  47 SW6G18    30.19R
GAYLORD        CLOUDY    77  44  30 SW14      30.15F
6HR MIN TEMP:  57; 6HR MAX TEMP:  78;

GRAYLING       CLOUDY    79  45  29 S10       30.16F
HARBOR SPRINGS CLOUDY    74  46  37 SW6       30.14F
HOUGHTON LAKE  CLOUDY    76  46  34 SW9       30.18F
6HR MIN TEMP:  52; 6HR MAX TEMP:  76;

MANISTEE       CLOUDY    70  48  46 SW12      30.19S
OSCODA         CLOUDY    77  47  33 S10       30.16F
PELLSTON       CLOUDY    78  42  27 SW12      30.14F
6HR MIN TEMP:  63; 6HR MAX TEMP:  79;

ROGERS CITY    CLOUDY    63  46  53 N3        30.16F
TRAVERSE CITY  CLOUDY    79  45  29 W10       30.13F
6HR MIN TEMP:  58; 6HR MAX TEMP:  81;

$$
MIZ007>008-015-241900-
EASTERN UPPER MICHIGAN

CITY           SKY/WX    TMP DP  RH WIND       PRES   REMARKS
KINROSS        CLOUDY    72  43  35 SW6       30.13F
6HR MIN TEMP:  54; 6HR MAX TEMP:  73;

MACKINAC ISLAN CLOUDY    67  40  37 W6        30.14F
6HR MIN TEMP:  58; 6HR MAX TEMP:  67;

NEWBERRY       PTSUNNY   72  46  38 SW8       30.12F
S. S. MARIE    PTSUNNY   78  45  30 SW13      30.10F
6HR MIN TEMP:  51; 6HR MAX TEMP:  79;

MUNISING         N/A     63  45  51 VRB6      30.07F
6HR MIN TEMP:  59; 6HR MAX TEMP:  78;

$$
MIZ004>006-011>014-085-241900-
CENTRAL UPPER MICHIGAN

CITY           SKY/WX    TMP DP  RH WIND       PRES   REMARKS
MANISTIQUE     CLOUDY    57  42  55 S8        30.13F
6HR MIN TEMP:  53; 6HR MAX TEMP:  60;

ESCANABA       CLOUDY    66  46  48 SE8       30.10F
6HR MIN TEMP:  57; 6HR MAX TEMP:  66;

MENOMINEE      CLOUDY    72  48  43 SW14G20   30.10F
6HR MIN TEMP:  59; 6HR MAX TEMP:  72;

SAWYER-GWINN   PTSUNNY   75  45  33 W9        30.10F
$$
MIZ001>003-009>011-084-241900-
WESTERN UPPER MICHIGAN

CITY           SKY/WX    TMP DP  RH WIND       PRES   REMARKS
IRON MOUNTAIN  CLOUDY    78  45  30 S10       30.08F
6HR MIN TEMP:  59; 6HR MAX TEMP:  78;

HOUGHTON       PTSUNNY   74  44  34 SW7       30.07F
6HR MIN TEMP:  62; 6HR MAX TEMP:  75;

COPPER HARBOR    N/A     53  41  63 N10       30.05F
6HR MIN TEMP:  52; 6HR MAX TEMP:  69;

IRONWOOD       CLOUDY    73  46  38 SW7       30.04F
6HR MIN TEMP:  52; 6HR MAX TEMP:  73;

$$

ABBREVIATIONS USED IN REMARKS
   TC - TEMPERATURE IN CELSIUS
  WCI - WIND CHILL INDEX
   HX - HEAT INDEX
  VSB - VISIBILITY




USA.gov is the U.S. government's official web portal to all federal, state and local government web resources and services.